FW2498 Weather Reports


time (UTC)temp
F
wind
direction
speed
knots
gust
knots
rain 1hr
in
rain 24hr
in
rain mn
in
humidity
%
barometer
mb
20260504034529 60 342 11.3 16.5 0.00 0.00 0.00 38 1004.0
20260504033029 61 356 13.0 20.0 0.00 0.00 0.00 38 1003.8
20260504031529 62 348 15.6 23.5 0.00 0.00 0.00 37 1003.5
20260504030030 64 343 20.9 29.5 0.00 0.00 0.00 35 1002.8
20260504024533 67 293 20.0 26.1 0.00 0.00 0.00 32 1001.9
20260504023026 67 287 13.0 20.0 0.00 0.00 0.00 32 1001.6
20260504021526 68 296 17.4 25.2 0.00 0.00 0.00 31 1001.5
20260504020024 69 290 16.5 22.6 0.00 0.00 0.00 31 1001.4
20260504014522 69 281 20.0 26.1 0.00 0.00 0.00 30 1001.4
20260504013033 70 309 20.0 27.8 0.00 0.00 0.00 30 1001.5
20260504011521 71 296 26.9 32.2 0.00 0.00 0.00 29 1001.7
20260504010020 72 281 20.0 27.8 0.00 0.00 0.00 26 1001.6
20260504004519 73 292 20.9 28.7 0.00 0.00 0.00 23 1001.6
20260504003034 73 270 24.3 33.0 0.00 0.00 0.00 23 1001.5
20260504001516 74 276 20.0 32.2 0.00 0.00 0.00 22 1001.7
20260504000014 74 280 23.5 33.0 0.00 0.00 0.00 22 1001.8
20260503234512 74 277 24.3 29.5 0.00 0.00 0.00 21 1001.9
20260503233009 75 282 23.5 31.3 0.00 0.00 0.00 21 1002.1
20260503231507 75 259 22.6 33.0 0.00 0.00 0.00 22 1002.2
20260503230007 74 257 20.9 30.4 0.00 0.00 0.00 24 1002.4
20260503224502 75 255 25.2 32.2 0.00 0.00 0.00 24 1002.9
20260503223059 74 250 20.9 29.5 0.00 0.00 0.00 26 1003.3
20260503221559 74 258 20.9 34.8 0.00 0.00 0.00 25 1003.6
20260503220054 73 266 24.3 31.3 0.00 0.00 0.00 24 1004.0
20260503214550 72 262 20.0 26.9 0.00 0.00 0.00 23 1004.4
20260503213049 72 254 20.0 29.5 0.00 0.00 0.00 23 1004.9
20260503211546 72 265 20.9 26.9 0.00 0.00 0.00 24 1005.1
20260503210043 72 250 21.7 27.8 0.00 0.00 0.00 28 1005.4
20260503204540 71 270 21.7 28.7 0.00 0.00 0.00 29 1005.6
20260503203043 71 250 20.9 26.9 0.00 0.00 0.00 29 1005.8
20260503201537 71 240 21.7 27.8 0.00 0.00 0.00 29 1006.0
20260503200035 71 250 19.1 26.9 0.00 0.00 0.00 28 1006.1
20260503194531 71 268 16.5 27.8 0.00 0.00 0.00 28 1006.5
20260503193028 71 274 21.7 27.8 0.00 0.00 0.00 28 1007.3
20260503191526 70 280 19.1 26.9 0.00 0.00 0.00 29 1007.5
20260503190025 70 262 20.9 27.8 0.00 0.00 0.00 31 1007.7
20260503184521 71 254 21.7 27.8 0.00 0.00 0.00 30 1008.1
20260503183017 70 229 15.6 29.5 0.00 0.00 0.00 33 1008.4
20260503181513 69 258 23.5 28.7 0.00 0.00 0.00 32 1008.9
20260503180009 68 240 22.6 32.2 0.00 0.00 0.00 34 1009.2
20260503174507 68 240 20.9 29.5 0.00 0.00 0.00 34 1009.7
20260503173005 67 240 18.2 26.9 0.00 0.00 0.00 35 1009.8
20260503171613 67 219 20.0 27.8 0.00 0.00 0.00 35 1010.0
20260503170105 67 255 18.2 28.7 0.00 0.00 0.00 35 1010.1
20260503081603 45 256 6.1 8.7 0.00 0.00 0.00 56 1014.7
20260503080109 46 245 6.1 7.8 0.00 0.00 0.00 55 1014.6
20260503071607 46 235 3.5 5.2 0.00 0.00 0.00 54 1014.7
20260503054553 48 284 2.6 3.5 0.00 0.00 0.00 49 1015.0
20260503053040 48 284 1.7 3.5 0.00 0.00 0.00 50 1014.9
20260503051538 48 284 1.7 2.6 0.00 0.00 0.00 49 1015.0
20260503050044 49 284 1.7 3.5 0.00 0.00 0.00 49 1015.1
20260503044548 49 285 2.6 3.5 0.00 0.00 0.00 48 1015.2
20260503043044 50 323 1.7 2.6 0.00 0.00 0.00 47 1015.2
20260503041535 50 7 1.7 3.5 0.00 0.00 0.00 47 1015.1
20260503040039 51 7 1.7 2.6 0.00 0.00 0.00 46 1015.1